Back to catalog

MARINA

AliveAmateur RadioSSO
NORAD 69920·PAYLOAD·🇫🇮 Finland

Launched Jul 7, 2026 from Vandenberg Space Force Base

Loading…

Next Passes (next 24 hours)

TLE

FreshSource: AMSAT

Epoch: Sep 13, 2026, 16:18 UTC

1 69920U 26156BD  26256.67967705  .00001885  00000-0  19066-3 0  9991
2 69920  97.7445 156.0100 0006038 294.2224  65.8364 14.92160181 10195

Track MARINA in real time with AllMySat

Download on the App Store